User: anonymous   Login
Location: Unspecified
(0.0000°N, 0.0000°E)
Time: 02:30:37
(UTC+00:00)
Language:

ISS - Orbit

View from above orbital plane
View from above orbital plane
View from above satellite
View from above satellite

Ground track
Ground track

The orbit data is extracted from the following two-line orbital elements,

1 25544U 98067A   22176.84895575 -.01311545  00000-0 -25961-1 0  9995
2 25544  51.6440 293.6933 0002150 302.6598 198.1246 15.49430897346529
Epoch (UTC): 25 June 2022 20:22:29
Eccentricity: 0.0002150
inclination: 51.6440°
perigee height: 417 km
apogee height: 420 km
right ascension of ascending node: 293.6933°
argument of perigee: 302.6598°
revolutions per day: 15.49430897
mean anomaly at epoch: 198.1246°
orbit number at epoch: 34652

The dashed part of the orbit path shows where the satellite is in the earth's shadow,  

DLR